TimeCDT,TemperatureF,Dew PointF,Humidity,Sea Level PressureIn,VisibilityMPH,Wind Direction,Wind SpeedMPH,Gust SpeedMPH,PrecipitationIn,Events,Conditions,WindDirDegrees,DateUTC
12:07 AM,64.0,63.0,96,29.79,10.0,South,8.1,-,0.00,Rain,Light Rain,190,2013-06-01 05:07:00
12:25 AM,64.0,63.0,96,29.80,10.0,SSW,9.2,-,0.00,,Mostly Cloudy,210,2013-06-01 05:25:00
12:37 AM,64.0,63.0,96,29.79,10.0,SSW,8.1,-,0.00,,Scattered Clouds,210,2013-06-01 05:37:00
12:54 AM,64.0,62.1,93,29.77,10.0,South,6.9,-,0.00,,Clear,190,2013-06-01 05:54:00
1:51 AM,62.6,62.6,100,29.74,8.0,East,5.8,-,N/A,,Partly Cloudy,90,2013-06-01 06:51:00
1:54 AM,63.0,62.1,97,29.73,7.0,ESE,5.8,-,N/A,,Partly Cloudy,110,2013-06-01 06:54:00
2:24 AM,63.0,62.1,97,29.72,7.0,SE,8.1,-,N/A,,Mostly Cloudy,140,2013-06-01 07:24:00
2:39 AM,63.0,62.1,97,29.73,9.0,SSE,8.1,-,N/A,,Mostly Cloudy,160,2013-06-01 07:39:00
2:47 AM,63.0,62.1,97,29.73,10.0,South,8.1,-,N/A,,Scattered Clouds,170,2013-06-01 07:47:00
2:54 AM,63.0,62.1,97,29.71,10.0,South,8.1,-,N/A,,Partly Cloudy,170,2013-06-01 07:54:00
3:54 AM,63.0,62.1,97,29.72,10.0,SE,5.8,-,N/A,,Mostly Cloudy,140,2013-06-01 08:54:00
4:54 AM,63.0,62.1,97,29.70,10.0,SSE,6.9,-,0.01,,Mostly Cloudy,150,2013-06-01 09:54:00
5:54 AM,64.0,62.1,93,29.75,10.0,South,11.5,-,0.00,Rain,Light Rain,180,2013-06-01 10:54:00
6:24 AM,64.0,63.0,96,29.77,10.0,South,13.8,-,0.01,Rain,Light Rain,170,2013-06-01 11:24:00
6:54 AM,64.9,63.0,93,29.75,10.0,South,13.8,-,0.02,Rain,Light Rain,180,2013-06-01 11:54:00
7:33 AM,64.9,64.0,97,29.77,10.0,South,11.5,-,0.01,,Mostly Cloudy,180,2013-06-01 12:33:00
7:54 AM,66.0,64.0,93,29.73,10.0,South,11.5,-,0.01,Rain,Light Rain,180,2013-06-01 12:54:00
8:54 AM,66.9,64.0,90,29.76,10.0,WNW,11.5,-,0.00,,Partly Cloudy,290,2013-06-01 13:54:00
9:19 AM,66.9,64.0,90,29.78,10.0,West,9.2,-,N/A,,Mostly Cloudy,280,2013-06-01 14:19:00
9:54 AM,68.0,64.9,90,29.76,10.0,West,8.1,-,N/A,,Mostly Cloudy,270,2013-06-01 14:54:00
10:21 AM,69.1,64.9,87,29.76,10.0,WSW,11.5,-,N/A,,Scattered Clouds,240,2013-06-01 15:21:00
10:36 AM,69.1,64.0,84,29.76,10.0,WSW,11.5,-,N/A,,Mostly Cloudy,240,2013-06-01 15:36:00
10:54 AM,69.1,64.9,87,29.75,10.0,WSW,8.1,-,N/A,,Overcast,250,2013-06-01 15:54:00
11:54 AM,72.0,64.9,78,29.76,10.0,West,9.2,-,N/A,,Mostly Cloudy,270,2013-06-01 16:54:00
12:10 PM,73.0,64.9,76,29.78,10.0,West,10.4,-,N/A,,Scattered Clouds,260,2013-06-01 17:10:00
12:20 PM,71.1,63.0,75,29.79,10.0,WNW,12.7,-,N/A,,Mostly Cloudy,290,2013-06-01 17:20:00
12:54 PM,72.0,63.0,73,29.78,10.0,NW,11.5,-,N/A,,Mostly Cloudy,310,2013-06-01 17:54:00
1:54 PM,72.0,61.0,68,29.78,10.0,WNW,13.8,-,N/A,,Mostly Cloudy,290,2013-06-01 18:54:00
2:01 PM,73.0,59.0,61,29.80,10.0,West,17.3,24.2,N/A,,Mostly Cloudy,270,2013-06-01 19:01:00
2:54 PM,73.0,57.0,57,29.80,10.0,West,15.0,24.2,N/A,,Partly Cloudy,260,2013-06-01 19:54:00
3:54 PM,72.0,55.9,57,29.81,10.0,West,16.1,24.2,N/A,,Mostly Cloudy,280,2013-06-01 20:54:00
4:54 PM,72.0,55.9,57,29.82,10.0,West,12.7,-,N/A,,Overcast,270,2013-06-01 21:54:00
5:54 PM,70.0,54.0,57,29.83,10.0,West,15.0,-,N/A,,Mostly Cloudy,260,2013-06-01 22:54:00
6:54 PM,69.1,55.9,63,29.83,10.0,WNW,10.4,-,N/A,,Overcast,290,2013-06-01 23:54:00
7:54 PM,68.0,55.9,65,29.84,10.0,West,10.4,-,N/A,,Mostly Cloudy,270,2013-06-02 00:54:00
8:54 PM,64.9,57.0,75,29.86,10.0,WNW,10.4,-,N/A,,Scattered Clouds,290,2013-06-02 01:54:00
9:54 PM,64.0,55.9,75,29.89,10.0,WNW,9.2,-,N/A,,Partly Cloudy,300,2013-06-02 02:54:00
10:54 PM,63.0,54.0,72,29.92,10.0,NW,12.7,-,N/A,,Partly Cloudy,310,2013-06-02 03:54:00
11:22 PM,63.0,54.0,72,29.94,10.0,WNW,10.4,19.6,N/A,,Mostly Cloudy,300,2013-06-02 04:22:00
11:54 PM,62.1,54.0,75,29.93,10.0,NW,11.5,-,N/A,,Overcast,310,2013-06-02 04:54:00